Tracking 21470 objects as of 25-Sep-2020
HD Live streaming from Space Station
objects crossing your sky now

DELTA 1 DEB

Track DELTA 1 DEB now!
10-day predictions


NORAD ID: 13574
Int'l Code: 1978-026FM
Perigee: 823.8 km
Apogee: 880.6 km
Inclination: 98.8 °
Period: 101.8 minutes
Semi major axis: 7223 km
RCS: 0.0387 m2 (small)
Launch date: March 5, 1978
Source: United States (US)
Launch site: AIR FORCE WESTERN TEST RANGE (AFWTR)

Note: This is SATELLITE DEBRIS
aabbcc
Your satellite tracking list
Your tracking list is empty




NASA's NSSDC Master Catalog

Two Line Element Set (TLE):
1 13574U 78026FM  20268.42367735 +.00000097 +00000-0 +73226-4 0  9998
2 13574 098.7902 225.4856 0039368 331.3210 144.8534 14.14195485010823
Source of the keplerian elements: AFSPC